Temp
5 4 5 7 6 5 5 5 5 7 7 6 7 6 8 7 7 8 8 7 7 7 7 7 7 7 7 6 6 6 6 5 5 4 4 3 4 4 4 4 3 3 3 3
5 5 6 5 5 5 5 5 6 7 7 5 5 6 7 7 7 7 7 7 7 7 7 7 7 6 6 6 6 6 5 5 4 4 3 3 3 3 3 3 2 2 2 2
5 5 5 5 5 4 5 5 6 5 6 5 5 6 7 8 7 7 7 7 6 6 6 6 6 6 6 5 5 5 5 4 3 2 2 2 2 2 2 1 1 1 1 1
2 3 4 3 4 4 4 5 5 4 4 3 5 6 6 6 7 7 7 7 7 6 6 6 6 5 5 5 4 4 3 3 2 2 2 1 1 1 0 -0 0 -0 -0 -1
3 3 3 3 4 4 3 3 3 3 3 3 3 3 6 5 5 6 6 6 6 6 6 5 5 5 4 4 3 3 2 1 1 1 1 1 0 -0 -1 -1 -1 -1 -1 -1
0 1 1 2 3 3 2 2 2 2 2 2 3 3 6 5 5 5 6 6 5 5 5 5 4 4 4 3 2 1 0 0 0 0 -0 -1 -1 -1 -1 -1 -1 -2 -2 -2
0 -0 0 0 1 2 2 1 2 1 1 3 3 2 5 4 4 4 4 5 5 5 5 5 4 4 3 2 0 -0 -1 -0 -1 -1 -1 -1 -1 -1 -2 -2 -2 -2 -3 -3
1 2 2 1 2 1 2 2 3 2 3 4 2 3 4 4 4 4 4 4 4 4 4 4 4 3 1 -0 -1 -1 -1 -1 -1 -1 -2 -2 -1 -2 -3 -3 -3 -3 -4 -4
1 1 2 3 2 1 1 1 1 1 2 1 3 3 3 3 3 3 3 3 3 3 3 3 3 2 0 -1 -1 -1 -1 -2 -2 -2 -2 -3 -3 -3 -3 -4 -4 -4 -4 -4
0 0 1 1 1 1 1 1 0 0 1 1 3 1 2 3 3 3 2 2 2 2 2 2 1 0 -1 -1 -2 -2 -2 -2 -2 -2 -2 -2 -4 -4 -4 -4 -4 -4 -4 -5
-1 -1 -0 -0 -0 0 0 -1 0 0 1 2 2 3 1 2 0 0 0 -0 -0 -0 0 0 0 -0 -1 -1 -2 -2 -2 -2 -2 -2 -3 -4 -4 -4 -5 -5 -5 -5 -6 -5
-2 -2 -2 -1 -1 -1 -1 -0 -1 -1 0 -1 -0 1 -0 -0 -1 -1 -1 -1 -1 -1 -1 -1 -1 -1 -1 -1 -2 -2 -2 -2 -3 -3 -3 -4 -4 -5 -5 -5 -6 -6 -6 -6
-4 -4 -3 -3 -3 -3 -2 -4 -4 -3 -3 -2 -2 -2 -1 -2 -2 -2 -2 -2 -2 -2 -2 -2 -2 -2 -2 -2 -2 -2 -2 -3 -4 -3 -4 -5 -5 -6 -5 -6 -6 -7 -7 -7
-5 -6 -5 -5 -6 -5 -5 -5 -5 -5 -5 -6 -5 -4 -3 -4 -5 -4 -4 -3 -3 -3 -2 -2 -2 -1 -2 -2 -2 -2 -3 -4 -4 -4 -4 -5 -5 -6 -6 -7 -7 -7 -7 -7
-6 -6 -6 -6 -6 -6 -6 -6 -6 -6 -5 -6 -5 -5 -2 -3 -5 -5 -3 -4 -4 -3 -2 -2 -2 -2 -2 -2 -2 -3 -3 -3 -3 -4 -5 -6 -6 -6 -6 -7 -8 -8 -8 -8
-5 -6 -5 -5 -4 -5 -6 -5 -5 -5 -5 -6 -5 -4 -2 -3 -3 -4 -3 -3 -2 -2 -3 -3 -3 -2 -2 -2 -2 -3 -3 -3 -4 -6 -6 -6 -6 -7 -7 -7 -7 -8 -9 -9
-5 -5 -6 -6 -6 -6 -6 -4 -4 -4 -4 -4 -5 -3 -4 -4 -4 -4 -3 -3 -3 -3 -3 -3 -3 -3 -3 -3 -3 -3 -4 -4 -5 -6 -6 -6 -6 -7 -8 -7 -8 -9 -9 -9
-6 -6 -6 -6 -6 -6 -4 -4 -4 -5 -4 -4 -4 -4 -4 -4 -4 -4 -3 -3 -3 -3 -3 -3 -3 -3 -3 -3 -4 -4 -4 -5 -5 -6 -6 -6 -7 -8 -8 -8 -9 -9 -9 -10
-6 -6 -6 -6 -6 -6 -5 -4 -5 -5 -5 -5 -5 -4 -4 -4 -4 -4 -4 -4 -4 -4 -4 -4 -4 -4 -4 -4 -4 -4 -4 -5 -6 -6 -7 -7 -8 -9 -8 -9 -9 -9 -10 -10
-6 -6 -6 -6 -7 -6 -4 -5 -5 -5 -5 -5 -5 -5 -5 -5 -5 -5 -5 -5 -5 -5 -5 -5 -5 -5 -5 -5 -5 -5 -5 -5 -6 -6 -7 -8 -8 -9 -9 -9 -9 -10 -10 -11
-7 -7 -7 -7 -7 -6 -5 -6 -6 -6 -5 -6 -6 -6 -6 -5 -6 -6 -6 -6 -6 -6 -5 -5 -5 -5 -5 -5 -5 -6 -6 -6 -7 -8 -8 -9 -9 -9 -9 -10 -10 -10 -11 -11
-6 -6 -7 -7 -7 -7 -5 -5 -6 -5 -6 -6 -7 -7 -7 -6 -6 -6 -6 -6 -6 -5 -5 -6 -6 -6 -7 -7 -6 -7 -8 -8 -8 -9 -9 -9 -10 -10 -10 -10 -11 -11 -12 -12
-6 -6 -6 -6 -5 -5 -5 -5 -5 -5 -6 -7 -7 -7 -7 -6 -6 -6 -6 -6 -6 -6 -7 -7 -7 -7 -7 -7 -7 -8 -8 -8 -9 -9 -10 -10 -10 -10 -11 -11 -11 -12 -12 -12
-7 -6 -6 -6 -5 -6 -5 -5 -5 -5 -6 -6 -6 -6 -6 -6 -6 -6 -7 -7 -7 -7 -7 -7 -7 -7 -7 -8 -9 -8 -8 -8 -9 -9 -10 -10 -10 -11 -11 -11 -12 -13 -13 -12
-6 -6 -6 -6 -5 -6 -5 -5 -5 -6 -6 -6 -6 -7 -6 -6 -6 -7 -7 -7 -8 -8 -8 -7 -7 -7 -8 -8 -9 -9 -9 -9 -9 -10 -10 -10 -11 -11 -12 -12 -12 -13 -13 -13
-6 -6 -6 -5 -5 -5 -5 -6 -6 -6 -6 -6 -6 -7 -7 -6 -7 -7 -8 -8 -8 -8 -8 -8 -8 -8 -8 -8 -9 -9 -10 -10 -10 -10 -11 -11 -11 -12 -12 -12 -13 -13 -13 -13
Height
3107 3109 3110 3111 3108 3108 3109 3107 3106 3107 3107 3103 3102 3101 3104 3105 3106 3108 3109 3111 3114 3117 3120 3121 3121 3121 3121 3122 3122 3123 3123 3123 3123 3122 3121 3121 3121 3120 3118 3116 3115 3112 3111 3109
3100 3098 3106 3107 3106 3103 3103 3102 3101 3102 3103 3099 3097 3092 3096 3097 3098 3100 3103 3104 3107 3109 3111 3113 3114 3114 3115 3116 3116 3116 3116 3117 3117 3117 3117 3117 3116 3114 3112 3111 3109 3108 3107 3104
3091 3093 3097 3098 3099 3100 3096 3095 3097 3097 3098 3095 3091 3079 3085 3090 3090 3093 3095 3097 3099 3101 3102 3104 3105 3106 3108 3110 3110 3110 3111 3111 3111 3112 3112 3111 3109 3108 3107 3105 3103 3103 3101 3099
3083 3083 3087 3092 3090 3096 3092 3092 3091 3092 3094 3093 3091 3071 3076 3078 3080 3084 3087 3088 3091 3093 3093 3094 3095 3098 3101 3102 3102 3103 3104 3104 3104 3104 3105 3105 3103 3103 3103 3101 3099 3098 3096 3093
3075 3076 3080 3081 3083 3088 3087 3090 3090 3089 3089 3089 3087 3089 3061 3072 3075 3079 3080 3081 3082 3084 3085 3086 3088 3091 3092 3092 3094 3095 3097 3098 3099 3099 3099 3100 3100 3098 3097 3096 3095 3093 3091 3089
3069 3074 3074 3076 3077 3081 3083 3085 3086 3086 3086 3081 3082 3088 3042 3063 3062 3067 3069 3072 3073 3075 3078 3079 3080 3081 3082 3085 3087 3089 3090 3091 3092 3094 3093 3095 3094 3093 3092 3090 3087 3087 3085 3084
3063 3064 3069 3072 3074 3076 3077 3080 3084 3084 3083 3069 3072 3076 3051 3057 3060 3062 3063 3066 3069 3069 3069 3070 3070 3072 3075 3077 3081 3084 3083 3084 3085 3088 3089 3089 3089 3088 3087 3084 3080 3078 3079 3076
3058 3059 3059 3060 3062 3068 3070 3072 3069 3070 3071 3066 3067 3056 3053 3053 3054 3055 3058 3061 3061 3061 3062 3063 3064 3066 3071 3071 3073 3077 3079 3079 3081 3082 3083 3083 3083 3081 3080 3080 3078 3074 3072 3071
3053 3053 3054 3056 3057 3061 3063 3065 3067 3066 3065 3067 3057 3050 3051 3050 3051 3051 3053 3055 3054 3053 3055 3057 3057 3058 3064 3067 3070 3072 3074 3074 3075 3076 3076 3076 3075 3074 3074 3073 3072 3068 3067 3065
3051 3051 3052 3053 3055 3056 3055 3058 3063 3062 3059 3056 3043 3047 3047 3050 3050 3048 3050 3050 3051 3050 3050 3050 3051 3053 3059 3064 3066 3068 3068 3068 3069 3069 3070 3070 3070 3068 3068 3066 3065 3062 3061 3058
3047 3047 3048 3048 3049 3051 3052 3050 3054 3054 3052 3045 3042 3043 3041 3046 3047 3045 3047 3047 3048 3048 3048 3048 3049 3051 3054 3058 3060 3061 3062 3062 3061 3062 3063 3063 3062 3061 3060 3059 3058 3055 3054 3052
3044 3043 3041 3045 3046 3046 3048 3047 3047 3048 3047 3044 3043 3040 3040 3040 3040 3039 3040 3042 3045 3045 3045 3046 3045 3048 3050 3053 3054 3056 3057 3058 3057 3057 3056 3056 3056 3055 3054 3054 3053 3049 3048 3046
3041 3042 3041 3040 3042 3040 3039 3041 3042 3043 3042 3041 3043 3040 3038 3037 3035 3036 3037 3038 3039 3040 3042 3042 3043 3044 3045 3046 3048 3048 3051 3053 3052 3050 3049 3050 3049 3048 3048 3047 3045 3043 3042 3039
3037 3038 3040 3039 3036 3036 3038 3038 3039 3040 3039 3038 3036 3034 3034 3033 3031 3031 3032 3033 3034 3035 3037 3038 3039 3039 3038 3038 3040 3041 3043 3045 3045 3043 3042 3043 3042 3041 3041 3040 3040 3038 3036 3033
3035 3034 3035 3035 3033 3033 3036 3035 3035 3037 3037 3034 3035 3031 3031 3030 3026 3026 3029 3029 3030 3032 3033 3031 3031 3031 3031 3032 3032 3033 3035 3035 3036 3037 3036 3036 3035 3035 3035 3034 3033 3032 3030 3027
3030 3027 3029 3029 3030 3029 3030 3029 3029 3028 3026 3025 3026 3022 3023 3021 3021 3023 3024 3022 3023 3023 3023 3024 3025 3024 3023 3025 3026 3027 3027 3027 3028 3029 3030 3030 3028 3029 3028 3027 3027 3026 3024 3022
3024 3026 3027 3026 3025 3024 3025 3020 3021 3020 3020 3021 3020 3017 3017 3014 3015 3017 3018 3016 3018 3017 3017 3017 3018 3018 3018 3018 3019 3019 3019 3019 3020 3022 3022 3022 3020 3022 3022 3022 3021 3020 3018 3017
3017 3021 3022 3020 3020 3017 3015 3014 3014 3014 3014 3015 3013 3011 3011 3010 3011 3012 3013 3011 3011 3011 3011 3011 3011 3012 3012 3012 3011 3011 3011 3012 3013 3014 3015 3015 3015 3015 3016 3016 3014 3014 3013 3012
3009 3013 3015 3015 3013 3010 3008 3008 3009 3008 3008 3008 3007 3007 3006 3006 3006 3006 3007 3005 3005 3005 3004 3004 3004 3005 3005 3005 3006 3005 3005 3006 3007 3009 3008 3008 3009 3008 3010 3009 3008 3008 3007 3007
3002 3005 3009 3009 3008 3006 2997 3000 3003 3004 2999 3001 3001 3001 3000 2999 2998 3000 3000 2999 2999 2999 2999 2999 2999 2999 3000 3000 3000 2999 2998 2999 3000 3002 3001 3002 3002 3003 3003 3002 3002 3002 3001 3001
2994 2996 2999 3000 3002 2998 2992 2995 2997 3000 3000 2995 2995 2994 2994 2994 2995 2994 2994 2994 2994 2994 2994 2993 2994 2993 2993 2993 2992 2991 2991 2993 2994 2995 2996 2997 2996 2997 2995 2995 2996 2996 2996 2996
2987 2989 2990 2994 2997 2993 2987 2989 2992 2992 2990 2990 2990 2991 2990 2991 2990 2989 2989 2988 2987 2987 2986 2985 2985 2985 2985 2984 2984 2984 2985 2986 2987 2989 2989 2990 2991 2990 2989 2989 2990 2990 2991 2991
2980 2979 2981 2985 2981 2983 2982 2983 2984 2985 2985 2985 2985 2985 2983 2983 2983 2981 2980 2978 2978 2978 2978 2977 2977 2976 2976 2976 2976 2977 2979 2979 2980 2982 2983 2984 2983 2983 2983 2983 2984 2985 2986 2987
2970 2973 2975 2978 2972 2976 2979 2978 2979 2979 2978 2979 2978 2977 2976 2974 2973 2971 2970 2970 2971 2971 2970 2970 2969 2969 2968 2967 2968 2970 2972 2973 2974 2976 2976 2976 2976 2976 2976 2977 2979 2980 2982 2983
2964 2967 2966 2966 2965 2971 2971 2973 2974 2972 2971 2972 2971 2969 2968 2967 2966 2963 2962 2962 2963 2963 2964 2963 2962 2961 2961 2961 2962 2964 2966 2967 2968 2969 2969 2969 2969 2969 2970 2972 2973 2975 2977 2979
2951 2955 2959 2956 2963 2965 2964 2965 2965 2965 2965 2965 2962 2961 2961 2960 2960 2959 2958 2958 2958 2957 2956 2956 2955 2955 2956 2956 2957 2958 2959 2960 2961 2961 2961 2961 2962 2963 2965 2966 2968 2970 2972 2974
Wind_Speed
19 22 27 23 21 21 22 23 22 21 21 22 26 29 28 27 23 21 23 22 22 25 23 22 23 25 26 28 29 30 29 31 30 29 29 27 25 23 22 21 22 22 24 27
31 36 26 26 27 26 23 24 25 24 23 26 27 33 30 30 30 26 20 21 21 23 26 26 27 28 28 30 33 34 33 33 32 31 28 26 26 23 21 20 21 23 25 25
36 32 27 25 26 30 29 29 28 27 26 30 33 45 38 35 35 30 30 27 26 26 27 29 31 32 30 31 33 36 37 34 31 28 26 26 25 22 21 21 22 23 26 26
33 31 34 34 33 31 33 27 25 23 19 14 17 23 26 22 26 26 30 31 31 33 35 33 34 33 33 34 37 38 36 33 28 25 26 25 23 21 20 20 22 24 26 27
26 18 17 21 29 30 30 21 16 14 18 25 23 14 23 10 15 17 17 20 24 29 30 33 33 32 34 36 37 37 32 27 24 23 24 23 22 20 21 22 23 25 27 28
36 29 21 21 17 17 20 12 13 17 15 13 19 16 55 24 26 20 21 25 25 23 24 28 30 33 35 34 34 28 24 21 21 22 21 21 21 21 23 24 24 26 27 28
31 39 35 29 20 14 19 12 4 6 6 9 13 18 44 17 13 9 11 14 20 22 26 29 25 24 28 27 23 20 19 18 17 17 18 18 22 24 24 24 26 25 27 27
9 9 12 31 39 39 31 28 16 7 8 14 18 16 20 20 19 17 18 24 25 24 27 26 20 18 18 18 19 18 17 15 13 11 15 18 24 26 28 27 31 30 25 25
9 10 15 16 8 20 25 31 35 23 18 10 16 23 26 21 18 17 16 16 16 18 22 21 19 15 17 18 15 14 13 12 14 15 17 19 21 23 27 29 28 24 25 30
11 11 15 16 13 13 21 7 12 18 9 16 19 14 17 14 13 15 14 13 13 12 13 12 11 12 13 15 17 12 12 12 13 15 17 20 21 26 29 30 30 31 36 30
24 18 11 7 7 15 17 19 18 10 21 7 11 10 13 14 7 8 8 8 6 4 3 5 6 9 11 11 15 18 15 14 14 17 20 20 24 25 27 26 31 29 24 25
16 11 13 16 21 18 12 10 13 14 13 9 13 18 12 13 14 16 15 11 8 7 8 7 6 7 7 11 13 14 17 19 19 20 24 26 28 25 21 23 24 22 23 23
9 7 6 6 9 11 10 6 9 10 16 22 11 9 17 18 18 18 13 12 11 11 11 11 12 13 13 15 20 19 19 18 21 27 31 28 30 24 27 24 23 22 23 23
5 3 5 5 4 3 6 6 7 7 4 6 12 21 15 12 16 16 11 10 13 11 11 13 16 18 23 24 23 24 22 24 28 29 29 25 28 26 27 21 23 24 23 23
13 11 14 15 13 14 17 22 22 21 24 16 23 26 27 24 26 28 25 23 17 21 21 26 23 21 19 21 25 23 24 24 25 27 26 25 25 23 25 24 22 24 23 20
18 18 15 19 13 15 20 25 21 25 29 29 27 28 20 13 14 15 13 11 15 17 16 22 23 24 25 25 24 23 23 23 25 25 24 27 26 26 27 21 23 21 18 19
14 20 15 13 14 9 12 28 19 17 17 16 20 23 15 13 11 11 14 15 18 16 18 19 20 20 21 22 21 22 22 24 24 23 25 30 25 27 23 22 19 18 18 18
26 21 23 16 10 8 14 16 14 14 14 13 18 20 17 13 15 19 20 24 25 25 25 24 24 26 26 27 26 26 27 28 27 25 30 29 25 17 19 21 18 18 18 18
27 25 23 16 15 14 29 29 23 25 25 22 22 23 23 22 26 29 30 23 20 22 24 23 24 24 22 22 23 24 26 28 26 27 31 27 19 14 17 18 19 19 19 17
24 24 24 17 5 6 33 21 16 13 27 21 20 20 24 24 24 20 16 11 8 11 15 17 20 22 23 24 25 27 26 28 26 30 29 24 19 17 17 18 19 19 17 15
28 30 31 28 19 19 30 17 8 11 14 12 9 13 12 16 22 21 21 17 14 16 18 21 24 28 28 26 24 25 27 26 24 27 22 22 21 19 18 18 19 18 15 15
23 18 21 17 14 17 21 14 14 12 14 14 14 14 17 19 20 21 24 25 26 25 31 28 26 25 24 24 24 25 25 19 22 21 21 21 21 20 19 19 19 17 15 13
27 28 22 20 25 17 15 16 20 23 18 15 18 22 27 29 32 35 38 35 32 32 27 25 25 24 24 23 22 20 22 26 21 23 21 21 22 22 20 19 19 17 15 13
27 25 30 27 34 31 30 29 23 20 18 18 18 22 22 24 28 31 32 29 28 25 24 22 22 21 22 22 20 22 21 22 21 24 24 24 24 22 20 20 19 17 16 15
25 22 27 29 31 25 25 26 21 19 23 23 29 26 24 24 25 23 24 18 18 18 19 19 19 18 16 16 17 21 21 23 26 26 26 25 23 21 20 21 19 18 17 17
38 36 32 37 28 23 22 20 22 26 28 29 30 27 24 22 20 22 20 21 21 21 20 20 20 19 18 16 17 20 22 24 25 27 25 23 21 20 20 19 19 18 17 16
Wind_Direction
267 270 267 272 271 268 268 266 268 265 273 269 257 256 254 254 253 249 246 240 234 235 242 242 242 248 255 257 260 265 275 281 281 285 290 295 296 296 293 297 303 309 309 305
261 266 272 275 268 263 260 264 265 267 265 266 273 266 258 254 252 253 251 248 238 234 237 240 241 240 248 256 261 264 271 276 278 280 283 283 281 279 280 287 290 294 296 298
261 263 266 268 270 264 259 258 264 268 273 269 278 275 270 261 259 254 251 254 253 251 249 246 246 243 253 260 262 263 268 273 274 275 276 275 274 272 275 281 290 295 297 303
265 263 258 261 259 260 268 267 261 260 265 269 281 288 269 266 260 258 255 254 254 254 254 253 250 252 254 255 257 261 266 267 268 269 269 269 266 270 279 287 291 295 299 303
248 256 260 254 260 258 260 256 258 260 260 266 258 268 270 270 254 259 260 260 262 254 250 250 253 255 253 252 255 258 261 266 268 271 270 267 269 274 281 286 291 295 297 299
249 253 250 251 252 248 248 248 240 245 241 254 246 226 277 264 264 261 262 257 254 252 252 257 264 260 252 251 254 256 259 262 268 269 267 272 276 278 277 280 284 289 295 301
246 246 246 241 239 235 217 200 203 222 199 253 242 215 252 263 249 231 265 251 251 256 261 267 268 263 251 247 245 243 245 254 257 267 276 277 278 277 278 278 285 288 297 303
242 271 245 248 248 238 227 222 219 241 228 257 233 236 250 261 264 267 259 254 259 261 257 255 266 255 234 221 218 231 246 256 270 266 286 288 283 275 284 288 293 295 298 304
226 250 223 243 214 218 237 232 246 249 256 275 251 259 267 261 259 259 260 261 251 244 250 250 246 233 207 203 213 234 251 261 268 269 275 279 278 278 280 287 293 295 294 298
254 268 248 241 231 219 223 239 215 215 234 237 249 258 259 275 272 273 259 248 245 242 246 244 222 184 177 199 221 255 254 254 255 270 277 277 278 278 285 290 286 285 285 294
230 244 243 208 225 233 231 230 232 237 234 251 260 251 268 264 227 190 186 172 148 123 160 170 175 190 194 223 245 241 249 259 267 275 279 287 288 289 284 286 285 283 290 297
214 238 254 251 255 254 248 248 243 229 238 249 255 259 269 180 177 185 184 196 206 187 206 213 205 210 230 245 258 267 269 266 270 282 288 281 289 294 278 283 286 288 294 300
217 235 264 217 223 224 213 220 228 235 236 244 257 248 241 206 199 210 210 216 211 217 219 231 251 271 268 256 257 260 264 274 271 281 274 282 284 295 284 285 287 293 295 302
216 231 280 325 3 293 306 295 292 309 283 298 274 272 233 237 289 229 233 248 241 244 247 258 268 259 264 264 263 264 260 269 266 268 275 282 276 289 283 287 291 289 295 297
277 263 276 279 283 297 298 290 293 285 287 269 286 291 288 288 299 296 297 300 272 248 263 276 253 261 271 264 267 270 266 267 268 265 272 273 282 281 287 292 285 284 288 290
262 270 283 281 291 286 284 288 281 270 268 265 274 286 320 278 275 271 273 277 274 260 255 257 262 258 252 258 259 260 264 267 268 269 274 263 275 289 286 296 283 279 286 292
255 258 253 264 286 286 263 279 275 272 274 275 260 296 303 268 280 235 248 284 283 255 247 254 262 259 260 265 267 262 262 262 263 264 266 258 259 275 289 287 279 280 288 292
239 249 249 258 266 253 258 271 269 254 258 258 274 275 277 271 269 269 273 282 281 259 262 258 257 262 266 264 263 261 263 261 258 256 256 260 264 275 282 279 282 284 289 290
234 234 241 244 246 277 270 265 266 265 274 277 269 261 263 272 269 270 273 271 268 254 257 256 258 260 259 257 259 264 265 264 262 257 261 247 266 280 287 284 282 283 283 282
224 228 232 234 222 247 272 278 280 286 276 286 276 279 274 274 265 265 264 248 263 267 264 265 264 262 263 266 266 267 264 261 258 253 251 256 267 277 286 284 280 278 275 274
209 222 229 235 239 256 269 278 254 228 279 312 299 295 284 270 267 262 248 246 267 272 274 278 269 266 266 267 264 262 257 259 242 253 246 257 272 280 291 282 276 269 266 266
212 208 219 221 228 253 260 249 238 293 294 298 284 270 263 268 259 260 272 273 271 275 284 278 269 268 266 263 262 251 259 239 238 241 258 260 272 283 282 273 267 258 256 251
222 218 219 220 235 249 254 272 284 296 286 288 284 278 279 279 279 273 277 284 285 278 277 273 272 270 269 263 256 256 244 236 232 256 260 267 275 278 272 261 254 245 237 239
228 234 235 242 249 250 269 272 281 284 283 284 289 295 303 292 286 282 275 279 276 273 272 273 275 276 273 264 252 234 240 234 254 260 265 270 271 269 260 250 242 235 227 233
243 247 250 255 258 271 269 270 279 272 272 276 286 289 298 304 302 302 270 262 263 268 272 276 280 281 274 256 236 230 240 249 256 262 267 269 268 261 249 242 237 224 227 233
251 252 252 251 267 278 279 268 267 270 277 285 284 284 288 291 285 289 294 281 272 277 280 281 279 274 269 256 246 241 245 251 258 265 267 265 258 248 242 234 222 219 226 234